Location: Gugi
(45.4667°N, 11.1000°E)
Time: 03:05:52
(UTC+00:00)

Cosmos 1980 Rocket - Pass Details

Date: 17 November 2019
Orbit: 828 x 851 km, 71.0° (Epoch: 12 December)

Event Time Altitude Azimuth Distance (km) Brightness Sun altitude
Rises 18:03:01 0° 209° (SSW) 3,383 5.8 -24.3°
Reaches altitude 10° 18:05:27 10° 211° (SSW) 2,456 5.0 -24.7°
Maximum altitude 18:11:06 75° 297° (WNW) 879 2.3 -25.7°
Enters shadow 18:13:19 39° 15° (NNE) 1,265 2.9 -26.1°
